Weather History for KPIL - February, 2014

Change the Weather History Date:

Friday, February 21, 2014

  Actual Average Record
Temperature  
Mean Temperature 66 °F -  
Max Temperature 72 °F - - ()
Min Temperature 60 °F - - ()
Cooling Degree Days 1    
Growing Degree Days 16 (Base 50)    
Moisture  
Dew Point 52 °F    
Average Humidity 60    
Maximum Humidity 83    
Minimum Humidity 44    
Precipitation  
Precipitation 0.00 in - - ()
Sea Level Pressure  
Sea Level Pressure 30.07 in    
Wind  
Wind Speed 15 mph (NE)    
Max Wind Speed 21 mph    
Max Gust Speed 33 mph    
Visibility 10 miles    
Events      
T = Trace of Precipitation, MM = Missing Value Source: NWS Daily Summary

Daily Weather History Graph

Daily Weather History Graph

Search for Another Location

Airport or City:

Trip Planner

Search our weather history database for the weather conditions in past years. The results will help you decide how hot, cold, wet, or windy it might be!

Date:

Astronomy

Feb. 21, 2014 Rise Set
Actual Time 7:00 AM CST 6:26 PM CST
Civil Twilight 6:36 AM CST 6:49 PM CST
Nautical Twilight 6:09 AM CST 7:16 PM CST
Astronomical Twilight 5:42 AM CST 7:43 PM CST
Moon No Moon Rise 11:03 AM CST (2/21)
Length of Visible Light 12h 12m
Length of Day
11h 26m
Waning Gibbous, 60% of the Moon is Illuminated
Feb 21
Waning Gibbous
Feb 22
Last Quarter
Mar 1
New
Mar 8
First Quarter
Mar 16
Full

Hourly Weather History & Observations

Time (CST) Temp. Dew Point Humidity Pressure Visibility Wind Dir Wind Speed Gust Speed Precip Events Conditions
12:53 AM 69.1 °F 57.0 °F 65% 29.97 in 10.0 mi NNE 20.7 mph 33.4 mph N/A   Clear
1:53 AM 66.9 °F 53.1 °F 61% 30.00 in 9.0 mi NNE 18.4 mph 27.6 mph N/A   Clear
2:53 AM 64.9 °F 50.0 °F 58% 30.02 in 10.0 mi North 20.7 mph 27.6 mph N/A   Clear
3:53 AM 64.9 °F 50.0 °F 58% 30.06 in 10.0 mi NNE 10.4 mph 23.0 mph N/A   Mostly Cloudy
4:53 AM 64.0 °F 48.9 °F 58% 30.08 in 10.0 mi NNE 15.0 mph - N/A   Overcast
5:53 AM 64.0 °F 48.9 °F 58% 30.10 in 10.0 mi NNE 15.0 mph - N/A   Overcast
6:53 AM 63.0 °F 51.1 °F 65% 30.12 in 10.0 mi NNE 12.7 mph - N/A   Clear
7:53 AM 64.0 °F 50.0 °F 60% 30.13 in 10.0 mi NE 11.5 mph - N/A   Clear
8:53 AM 68.0 °F 48.9 °F 50% 30.14 in 10.0 mi NE 17.3 mph - N/A   Clear
9:53 AM 70.0 °F 48.9 °F 47% 30.16 in 10.0 mi NE 17.3 mph 23.0 mph N/A   Clear
10:53 AM 71.1 °F 48.0 °F 44% 30.16 in 10.0 mi ENE 17.3 mph - N/A   Clear
11:53 AM 71.1 °F 50.0 °F 47% 30.14 in 10.0 mi ENE 18.4 mph 23.0 mph N/A   Partly Cloudy
12:53 PM 72.0 °F 48.9 °F 44% 30.11 in 10.0 mi ENE 20.7 mph 24.2 mph N/A   Clear
1:53 PM 72.0 °F 50.0 °F 46% 30.08 in 10.0 mi NE 15.0 mph - N/A   Clear
2:53 PM 72.0 °F 52.0 °F 49% 30.06 in 10.0 mi ENE 16.1 mph 20.7 mph N/A   Clear
3:53 PM 71.1 °F 52.0 °F 51% 30.05 in 10.0 mi East 12.7 mph - N/A   Clear
4:53 PM 69.1 °F 52.0 °F 54% 30.04 in 10.0 mi East 13.8 mph - N/A   Clear
5:53 PM 66.9 °F 52.0 °F 59% 30.04 in 10.0 mi East 10.4 mph - N/A   Clear
6:53 PM 64.9 °F 53.1 °F 65% 30.04 in 10.0 mi East 6.9 mph - N/A   Clear
7:53 PM 64.0 °F 55.0 °F 73% 30.05 in 10.0 mi East 5.8 mph - N/A   Clear
8:53 PM 63.0 °F 55.9 °F 78% 30.06 in 10.0 mi East 3.5 mph - N/A   Clear
9:53 PM 60.1 °F 55.0 °F 83% 30.06 in 10.0 mi ESE 4.6 mph - N/A   Clear
10:53 PM 61.0 °F 55.9 °F 83% 30.05 in 9.0 mi Calm Calm - N/A   Clear
11:53 PM 61.0 °F 55.9 °F 83% 30.04 in 9.0 mi Calm Calm - N/A   Clear